Wind_Speed
31 29 26 23 24 23 23 20 19 17 15 15 13 11 11 10 9 8 9 9 12 16 18 22 23 23 12 7 1 2 3 6 5 4 6 5 3 3 4 2 2 8 4 4 4 6 8
18 22 22 25 24 20 21 18 17 19 20 16 14 13 12 12 10 10 11 8 13 15 17 19 20 19 8 13 1 3 2 3 3 4 5 6 4 4 3 3 5 3 5 6 5 6 7
14 14 9 9 10 10 10 12 11 11 11 13 14 14 13 12 12 13 11 9 12 13 17 18 19 12 7 10 2 3 4 2 2 3 2 5 5 4 2 3 3 4 9 9 11 10 7
10 11 10 8 7 8 11 13 11 10 12 12 12 11 11 12 13 13 12 13 13 13 13 16 16 7 7 3 5 7 4 3 2 2 5 3 3 2 4 1 3 5 5 10 8 9 6
9 11 12 13 13 14 13 14 14 14 14 14 14 13 13 13 13 15 14 12 14 12 13 13 6 4 7 4 1 1 3 3 3 3 3 3 1 1 3 4 6 6 10 5 4 7 4
13 13 11 9 11 13 13 14 12 10 12 13 13 13 14 13 13 12 10 11 12 11 7 8 5 6 6 2 1 1 4 7 4 6 4 3 3 4 4 6 6 4 6 7 10 5 10
17 16 14 11 13 13 16 16 11 10 11 9 8 10 11 10 10 8 5 3 6 5 6 7 1 4 1 3 2 4 6 8 5 6 7 3 7 7 2 2 3 5 8 9 5 2 6
21 19 17 14 15 15 14 14 13 11 11 9 8 7 7 8 9 9 5 4 2 3 8 13 15 16 11 6 6 8 5 9 9 11 7 6 10 3 2 4 7 8 10 11 10 4 6
23 21 20 18 18 18 17 17 15 14 11 10 6 5 6 8 11 9 9 5 2 1 5 4 4 7 7 9 9 12 10 6 10 10 10 13 4 3 4 7 9 11 13 12 12 3 8
24 22 21 20 19 18 17 19 19 16 14 12 8 5 7 11 7 7 5 6 4 1 4 4 3 1 3 4 5 9 13 9 6 11 11 10 4 11 13 11 10 15 11 14 12 9 10
28 27 25 23 21 20 17 16 17 17 19 17 12 9 10 12 6 6 3 9 6 1 5 3 3 3 4 5 4 3 4 9 13 7 5 3 3 4 6 6 4 7 5 10 13 14 15
30 30 28 25 23 21 19 19 17 15 15 17 15 12 13 8 4 4 9 10 4 2 7 4 3 4 5 6 2 3 2 4 2 10 12 17 11 9 11 7 8 7 8 8 8 10 14
34 32 31 28 26 23 21 21 19 17 16 19 17 13 13 8 5 9 15 6 3 5 2 5 3 4 3 3 3 2 4 7 5 5 6 3 13 16 12 14 12 9 9 8 9 10 13
37 36 33 31 27 24 24 21 17 17 17 20 19 14 14 4 7 16 8 2 6 2 2 2 3 4 3 4 1 2 3 7 6 7 8 6 5 6 6 12 7 8 14 10 10 12 13
40 39 37 35 31 28 26 21 18 18 20 20 20 15 6 8 7 9 6 4 2 3 3 6 5 5 6 3 2 3 5 9 5 11 7 4 6 2 6 4 5 3 11 16 19 20 11
33 38 39 38 34 32 27 22 21 22 22 23 16 11 6 10 7 7 4 4 2 0 1 2 9 5 4 4 4 3 4 3 4 10 11 5 11 5 7 10 13 16 5 7 9 6 14
34 39 38 39 37 34 29 25 24 24 23 23 11 5 5 13 8 5 5 5 3 2 1 0 3 3 3 3 7 6 4 3 4 2 5 10 11 13 9 11 14 8 13 12 11 7 9
32 41 38 40 39 37 33 28 25 26 27 20 7 3 6 14 6 4 8 5 2 2 2 2 1 4 7 3 8 8 10 7 4 1 5 4 5 10 16 13 11 14 13 11 11 10 11
33 36 41 45 43 40 37 31 30 29 32 18 7 3 4 10 8 9 6 8 5 6 5 4 5 6 2 7 6 11 11 6 8 8 4 3 6 10 14 13 17 14 18 15 18 17 20
40 37 45 49 46 43 40 34 34 35 32 16 4 4 3 4 4 12 12 11 9 7 11 7 5 4 9 12 13 8 7 5 4 6 10 8 15 18 15 14 11 12 13 15 16 10 17
36 43 53 51 50 47 43 38 37 38 38 13 4 4 6 7 8 9 10 6 12 9 9 8 6 16 12 9 11 16 16 15 14 15 15 10 18 18 23 24 21 22 22 21 18 20 16
32 36 56 55 53 49 46 43 39 40 41 11 5 4 4 5 12 16 11 9 12 11 9 10 13 9 10 14 17 15 12 9 9 6 11 11 14 14 17 16 18 21 21 22 24 23 24
36 34 51 56 54 52 48 44 41 41 41 7 7 2 5 8 12 11 16 15 11 13 13 17 13 12 13 18 15 14 15 15 14 13 11 8 7 6 14 11 8 10 17 23 24 25 24
33 40 56 55 54 52 48 45 45 45 45 8 11 6 4 6 10 13 9 17 18 18 16 11 12 14 10 8 9 13 15 16 17 18 17 13 11 5 8 10 11 2 3 9 15 23 18
36 42 55 55 55 53 49 46 46 47 44 15 13 7 5 8 10 11 15 12 15 18 18 18 20 18 15 4 3 5 6 10 19 21 18 18 14 5 5 11 15 20 13 6 8 14 13
52 49 52 56 53 52 48 44 45 46 43 28 12 5 3 4 9 13 12 14 12 11 14 18 17 12 8 3 5 6 6 6 5 5 16 17 15 9 9 7 9 2 2 4 4 10 5
55 54 57 56 55 50 49 45 43 42 39 30 14 15 5 2 5 3 7 10 9 8 4 4 2 4 9 5 7 8 9 4 5 8 6 6 7 14 15 10 9 6 4 4 6 2 2
53 54 54 51 49 53 45 42 38 37 35 28 15 15 10 1 8 5 9 11 6 5 4 2 2 3 3 5 5 6 6 8 7 5 6 10 7 6 9 8 11 7 6 6 1 3 4
55 53 53 52 49 44 41 37 36 35 33 28 7 13 12 5 4 7 19 23 23 16 2 6 4 2 5 6 7 4 5 3 9 10 11 5 8 2 6 3 2 7 3 1 1 3 6
Wind_Direction
231 231 234 237 243 242 245 243 242 244 244 247 247 248 256 261 268 280 297 316 324 329 334 337 339 346 348 296 346 316 345 340 351 349 1 345 17 315 293 294 263 250 193 199 157 92 96
205 208 220 230 228 223 229 235 239 241 242 237 242 250 248 254 258 276 286 300 312 316 325 329 336 347 319 296 232 335 326 345 26 7 19 5 22 3 311 301 283 1 252 225 196 186 154
198 190 192 193 185 205 203 220 222 222 229 232 241 246 251 253 262 270 280 296 300 307 319 322 329 341 282 288 324 318 313 320 30 23 20 47 4 305 339 269 347 300 272 225 215 185 165
214 213 210 227 226 234 236 227 225 238 229 227 228 241 245 240 246 259 269 290 277 294 305 307 317 320 274 266 304 306 254 233 156 107 110 69 13 7 313 331 239 265 259 252 128 195 166
236 244 235 232 235 231 228 240 229 229 238 234 238 241 246 253 254 269 275 271 280 286 295 306 304 295 274 308 170 50 228 218 171 136 91 100 105 87 202 246 244 201 270 254 172 218 178
237 239 233 223 225 230 226 229 229 219 231 239 238 240 243 245 250 251 251 263 284 293 283 280 254 264 236 173 130 239 177 180 186 167 183 210 197 224 196 222 270 337 272 253 266 138 215
238 232 232 231 230 224 224 219 223 219 221 217 234 240 236 232 240 218 213 262 248 207 217 264 51 297 85 358 292 200 185 185 193 226 223 174 246 237 264 259 290 290 285 287 314 31 280
242 237 232 218 215 210 224 213 210 214 217 224 228 239 229 224 210 175 188 237 321 15 292 238 250 262 266 296 283 234 185 206 204 223 178 203 239 275 165 194 219 233 259 263 268 228 252
240 241 228 216 221 215 212 206 208 208 213 220 231 223 211 208 169 171 212 209 172 214 266 271 250 257 244 206 240 246 196 230 237 226 223 261 305 144 226 234 228 233 242 250 252 223 237
234 232 225 229 224 223 211 209 203 201 201 205 218 201 185 161 157 173 198 189 168 148 276 186 203 159 181 210 248 236 223 223 211 259 254 271 304 246 256 254 252 267 235 252 245 249 258
236 226 226 222 219 216 217 211 202 206 208 209 206 194 174 162 147 183 145 155 149 220 277 107 143 119 152 199 345 65 199 210 243 210 231 223 206 218 231 245 243 275 271 243 247 252 264
235 227 218 216 216 213 211 212 211 209 202 194 187 187 178 194 176 172 155 146 159 182 241 147 140 176 162 200 158 111 161 226 318 245 246 262 283 263 252 277 255 299 253 244 244 253 245
234 230 224 214 213 211 214 210 215 218 205 191 183 186 175 168 166 163 148 156 146 226 87 164 171 194 182 155 195 203 178 187 226 226 222 240 243 242 244 256 248 244 251 250 229 216 249
233 227 224 216 210 208 206 203 212 207 198 187 179 180 182 149 152 148 152 145 206 168 184 123 161 155 205 165 168 197 223 244 227 241 279 285 250 184 172 220 263 252 244 244 268 260 282
232 226 220 214 207 205 200 200 198 190 189 182 169 168 165 185 141 162 188 205 251 175 119 162 141 190 199 203 262 258 249 263 272 216 235 263 243 161 224 216 226 257 232 249 266 278 275
245 218 217 211 203 198 194 194 190 188 184 170 159 157 161 168 144 163 210 217 181 267 308 185 207 217 196 183 221 201 228 156 233 236 238 278 282 262 279 271 243 243 263 220 216 239 240
246 224 219 209 199 196 189 189 185 184 190 165 149 161 153 143 143 183 211 211 160 183 334 261 197 206 213 233 249 248 245 203 252 272 281 272 262 270 247 242 268 214 240 237 264 213 257
247 223 214 205 198 194 187 186 182 181 183 162 153 167 159 161 173 198 211 184 130 187 205 214 313 263 252 229 264 239 244 237 136 337 280 246 285 272 267 269 265 261 270 267 244 243 245
261 237 213 207 197 194 187 183 176 175 176 154 153 98 174 206 201 198 180 179 174 187 211 194 219 233 208 253 260 241 251 254 256 282 273 317 252 275 265 242 235 242 243 250 261 267 263
247 252 205 197 193 190 186 180 179 177 174 159 162 135 147 217 239 215 190 205 196 211 240 238 246 254 250 250 248 260 249 256 234 266 317 301 253 249 255 263 307 278 258 257 250 246 257
236 246 200 192 193 189 181 182 182 179 177 182 182 177 174 180 209 200 195 204 204 210 222 210 218 226 228 237 247 251 257 267 262 254 251 240 251 250 257 263 269 266 268 272 266 262 244
237 240 194 188 189 186 177 182 180 180 179 202 153 161 173 165 181 197 186 214 212 206 215 205 230 225 233 242 245 285 302 295 280 243 239 233 257 257 260 264 260 258 259 263 261 265 264
233 229 193 184 186 183 180 181 177 179 181 189 172 130 175 158 176 192 211 214 214 223 240 240 242 253 253 255 277 287 283 277 260 267 250 281 262 266 258 271 291 277 248 252 253 245 244
249 224 187 184 182 183 183 181 177 181 190 170 182 141 194 170 193 200 207 215 229 229 236 234 230 247 254 339 289 270 263 251 246 247 238 238 252 255 281 282 253 261 257 255 250 254 259
209 186 185 178 181 182 185 183 180 184 189 174 164 197 200 213 190 216 220 219 214 231 241 255 259 259 273 150 223 248 232 237 234 233 235 223 239 259 253 256 274 276 252 214 218 277 264
188 192 179 178 182 182 186 187 185 188 192 193 186 166 167 207 219 226 228 232 237 241 257 255 258 255 228 171 194 230 228 230 192 189 214 221 229 237 243 255 267 21 74 209 230 277 242
180 181 177 178 180 182 186 189 187 190 193 191 207 201 102 191 228 145 219 228 209 208 254 289 220 204 158 182 208 230 231 215 215 180 169 183 211 231 236 253 261 276 173 183 241 353 343
176 176 174 178 180 184 186 187 189 192 192 187 198 191 184 193 245 235 227 234 198 211 234 86 177 181 168 193 227 220 238 207 244 237 189 193 203 214 239 244 250 155 144 223 349 72 149
168 169 167 172 177 181 185 186 189 192 193 189 191 190 189 217 286 271 245 249 249 265 198 190 270 352 186 209 225 238 217 221 235 243 201 232 222 235 227 267 76 186 323 85 142 145 160
Height
816 821 823 825 827 830 834 834 836 838 839 841 842 842 844 843 843 842 840 841 839 841 838 835 832 829 824 816 813 816 815 816 815 813 812 809 804 804 802 802 802 802 799 799 798 802 803
809 813 817 820 822 826 828 830 831 833 835 836 838 839 840 841 841 840 840 837 838 839 838 835 832 829 828 821 815 815 815 816 815 813 812 811 808 807 805 804 806 805 803 798 798 799 806
809 812 816 818 818 823 823 827 828 829 831 832 834 836 837 838 839 838 837 837 838 836 837 835 833 830 827 818 818 816 817 817 815 814 812 813 813 809 808 806 809 807 808 797 797 801 804
808 810 811 817 817 822 825 825 824 827 828 830 830 832 834 834 836 836 835 837 833 835 832 833 832 832 818 813 815 817 816 816 815 814 812 813 814 812 811 810 807 807 807 799 794 800 803
808 810 811 812 817 819 819 825 821 821 826 825 827 827 830 833 833 834 835 832 834 833 832 831 832 829 815 815 812 813 816 816 816 815 814 813 812 813 814 812 807 805 801 800 800 800 805
804 808 808 807 812 816 816 820 821 817 821 823 823 825 826 827 829 831 832 834 833 831 831 830 829 832 813 808 811 812 812 813 813 813 814 811 809 807 807 804 804 806 805 796 798 800 803
802 803 805 803 808 811 815 816 817 817 820 820 822 824 824 825 828 827 832 833 832 828 828 816 812 811 811 814 813 811 811 811 812 810 807 810 807 800 801 806 809 813 811 807 800 806 807
798 799 801 800 803 806 813 813 814 815 819 820 818 823 822 823 825 827 831 830 828 832 821 815 815 814 814 817 813 808 813 810 808 804 807 810 802 794 805 810 812 810 810 808 800 806 808
793 796 798 798 802 803 803 810 810 814 817 819 819 820 823 823 824 825 829 828 830 830 824 811 814 812 811 812 808 805 809 806 808 805 805 802 793 805 806 803 808 803 803 799 802 800 803
789 791 795 798 799 803 802 803 806 810 813 816 819 820 822 823 828 825 826 828 828 831 822 805 810 808 811 810 808 803 805 806 809 808 803 804 799 806 803 804 802 800 791 795 798 803 799
785 787 790 795 797 799 803 803 805 804 810 813 816 818 819 823 822 824 827 825 828 831 818 811 811 809 808 807 806 806 806 807 807 806 810 804 807 808 807 800 800 799 799 798 795 794 791
779 783 785 790 793 796 799 802 803 804 808 810 813 816 817 823 822 823 823 826 828 827 815 805 808 809 807 805 801 805 806 807 806 807 807 803 798 803 798 797 800 797 801 799 797 793 798
773 779 782 785 788 791 795 800 803 804 805 808 812 814 817 820 820 820 822 826 826 815 806 807 805 808 801 804 803 802 806 807 803 807 802 799 798 796 797 802 797 802 803 805 800 801 790
767 771 777 781 785 786 791 794 800 803 805 807 810 815 816 817 820 820 822 823 819 802 802 803 802 804 806 802 803 802 805 802 801 803 800 801 801 796 796 800 797 795 800 801 799 788 775
758 763 769 774 780 784 787 793 795 801 805 808 809 814 818 817 819 821 820 820 796 800 802 801 803 803 805 805 809 806 804 800 797 799 806 799 800 793 794 792 794 791 801 788 797 789 797
753 754 761 768 773 778 783 788 793 799 802 806 811 813 816 816 819 822 820 806 807 814 809 805 799 802 804 807 810 814 802 800 799 795 793 795 803 788 788 787 787 787 780 794 795 809 795
747 749 755 761 766 773 777 785 790 794 803 805 810 810 814 816 821 821 817 807 808 813 813 807 805 806 807 808 807 808 803 800 798 796 798 796 799 794 788 789 784 783 789 788 785 800 786
740 741 748 754 760 765 772 781 785 794 800 804 810 808 814 818 820 815 812 808 815 814 814 812 812 810 809 809 807 807 804 799 799 800 802 796 796 797 788 778 779 781 778 780 790 794 783
732 731 739 748 753 759 767 775 782 791 796 800 804 811 817 817 811 808 808 812 813 816 812 813 812 812 812 813 814 804 802 797 799 802 803 797 794 799 787 780 775 780 773 776 778 779 785
724 727 727 738 745 751 762 769 778 787 792 799 801 811 816 816 805 799 803 808 812 815 815 814 816 817 816 812 810 805 804 802 804 804 808 806 797 795 790 780 777 782 774 771 775 794 780
714 717 717 727 738 747 754 762 775 782 790 796 795 797 796 806 811 802 802 804 804 812 816 816 815 812 810 810 806 801 799 799 800 804 803 801 793 786 779 775 776 774 772 770 773 772 781
704 707 707 721 732 740 749 756 768 778 786 793 794 791 793 792 798 805 807 806 807 806 810 812 812 803 806 806 799 795 798 803 801 795 794 792 789 781 775 771 771 772 769 766 763 763 761
694 700 701 712 724 736 744 752 760 773 783 784 787 788 784 793 795 803 798 801 804 807 808 804 801 802 801 799 799 802 804 805 806 798 794 798 791 784 777 767 774 780 770 761 754 750 748
683 687 693 707 718 731 740 748 755 766 775 779 782 786 784 789 789 796 795 802 802 799 800 798 799 801 798 802 803 805 804 801 801 796 792 796 788 786 777 769 776 751 752 751 755 747 749
672 682 688 702 715 728 736 744 752 762 771 778 781 785 784 783 786 789 790 793 799 798 797 797 794 794 798 810 808 802 787 789 782 782 780 782 784 786 779 762 750 742 737 756 755 740 733
665 677 687 699 712 725 734 743 751 760 767 776 781 782 784 784 779 784 783 785 788 785 786 785 786 790 794 804 798 788 771 765 764 768 765 771 775 781 769 770 753 738 744 748 749 743 728
660 672 684 698 711 723 733 741 749 757 766 773 778 782 787 788 784 786 783 782 783 786 785 783 783 790 794 795 786 772 763 759 757 759 776 778 779 772 763 763 747 737 742 750 749 743 742
657 671 684 697 710 721 730 740 748 757 764 771 776 779 784 787 780 783 783 783 781 784 781 785 789 789 791 786 775 763 756 750 751 746 753 760 759 760 759 762 751 739 748 747 747 752 753
656 672 685 698 709 720 730 738 747 755 762 770 774 778 782 785 779 781 780 779 781 779 785 786 780 777 776 771 758 754 755 750 745 744 746 753 745 755 754 738 744 742 745 750 750 752 757